Location: Chrastavice
(49.4545°N, 12.9571°E)
Time: 06:37:29
(UTC+00:00)

Daily predictions for brighter satellites

Satellite Brightness Start Highest point End
(mag) Time Altitude Azimuth Time Altitude Azimuth Time Altitude Azimuth
Cosmos 2369 Rocket 3.7 16:18:43 10° WSW 16:23:55 36° NW 16:29:11 10° NNE
Cosmos 2297 Rocket 2.6 16:19:06 10° NNW 16:24:30 42° NE 16:29:52 10° ESE
ERS-2 2.6 16:21:30 10° NNE 16:24:57 38° E 16:28:23 10° S
Aureole 3 Rocket 4.4 16:22:08 10° SE 16:25:29 23° E 16:29:43 10° NNE
Meteor 1-11 4.3 16:19:59 10° N 16:25:43 72° ENE 16:31:28 10° SSE
COSMOS 2487 3.7 16:24:44 10° NNW 16:28:04 46° WSW 16:31:22 10° S
Cosmos 1340 3.7 16:25:33 10° NNE 16:28:44 25° ENE 16:31:53 10° SE
COSMO-SKYMED 1 3.7 16:27:17 10° NE 16:30:51 24° E 16:34:24 10° SSE
CORIOLIS 4.1 16:26:39 10° SSE 16:32:00 82° ENE 16:37:24 10° NNW
H-2A R/B 2.2 16:28:50 10° NNE 16:33:01 73° WNW 16:37:06 10° SSW
FengYun 1-2 T 4.3 16:27:32 10° SSE 16:33:08 67° ENE 16:38:44 10° N
Cosmos 1110 Rocket 4.1 16:29:15 10° S 16:34:25 62° ESE 16:39:34 10° NNE
NOSS 2-2 (C) 4.4 16:31:49 10° NW 16:37:04 70° NE 16:44:25 10° SE
Lacrosse 5 2.8 16:34:34 10° W 16:39:19 38° NNW 16:44:04 10° ENE
Timation 2 Rocket 4.1 16:33:01 10° NNW 16:39:37 79° ENE 16:46:26 10° SE
Cosmos 1825 Rocket 3.6 16:35:52 10° N 16:40:22 84° E 16:44:48 10° S
ADEOS Rocket 3.5 16:36:42 10° NNE 16:43:01 74° WNW 16:50:03 10° SSW
Envisat 4.2 16:38:34 10° S 16:43:29 49° W 16:48:25 10° NNW
Cosmos 292 Rocket 4.0 16:39:04 10° S 16:43:41 50° ESE 16:48:22 10° NNE
Aureole 3 3.8 16:41:45 10° SSE 16:44:16 23° E 16:46:43 10° NE
Meteor 2-21 Rocket 4.4 16:38:57 10° N 16:45:11 76° E 16:51:18 10° SSE
Okean O Rocket 2.2 16:41:12 10° S 16:45:32 63° WSW 16:49:53 10° NNW
FALCON 9 DEB 3.8 16:42:46 10° WNW 16:46:04 44° N 16:48:52 13° ENE
YAOGAN 1 3.5 16:43:54 10° ESE 16:47:29 26° ENE 16:51:07 10° N
USA 281 3.7 16:41:45 10° SSE 16:48:16 66° WSW 16:54:50 10° NNW
ERBS 4.0 16:45:38 10° WNW 16:48:24 23° N 16:51:09 10° NE
FALCON 9 DEB 3.8 16:45:48 10° SSW 16:48:47 35° SE 16:51:05 15° E
FALCON 9 DEB 3.6 16:50:01 10° SW 16:53:02 39° SE 16:55:10 17° E
CZ-2C R/B 3.8 16:48:35 10° SE 16:53:48 37° ENE 16:58:53 10° N
Feng Yun 1-1 Rocket 4.4 16:47:55 10° SSE 16:53:49 76° ENE 16:59:45 10° NNW
SMAP 4.0 16:49:53 10° S 16:54:26 53° W 16:59:02 10° NNW
Cosmos 2219 3.2 16:49:09 10° NNW 16:54:55 69° ENE 17:00:39 10° SE
Cosmos 1455 3.8 16:54:26 10° ESE 16:56:10 15° E 16:56:10 15° E
Cosmos 1726 Rocket 3.5 16:53:18 10° S 16:57:37 69° E 17:02:00 10° NNE
Cosmos 1943 Rocket 4.5 16:54:41 10° WNW 16:58:19 17° NW 17:01:57 10° N
Cosmos 1553 Rocket 4.3 16:54:42 10° SSE 17:00:37 43° E 17:06:29 10° NNE
USA 307 3.1 16:57:18 10° WNW 17:01:34 59° NNE 17:04:41 17° E
Cosmos 2082 4.2 16:58:05 10° NNW 17:03:29 40° NE 17:08:49 10° ESE
Meteor 2-10 Rocket 4.3 16:59:06 10° SSE 17:03:34 29° E 17:07:56 10° NNE
Cosmos 2228 3.2 17:00:27 10° SSW 17:04:42 77° W 17:09:00 10° N
FALCON 9 DEB 3.4 17:01:52 10° SW 17:04:59 46° SSE 17:06:44 22° E
CZ-4B R/B 1.4 17:01:46 10° N 17:05:01 74° WNW 17:08:09 10° SSW
Cosmos 1939 Rocket 2.7 17:01:23 10° SSE 17:05:20 72° ENE 17:09:15 10° N
USA 308 3.0 17:02:09 10° WNW 17:06:25 61° NNE 17:09:20 19° E
ATLAS 5 CENTAUR R/B 3.7 17:05:26 10° WNW 17:08:51 20° NNW 17:12:37 10° NNE
CZ-4 R/B 4.4 17:05:46 10° SSE 17:09:52 64° ENE 17:14:01 10° N
Helios 1A Rocket 2.9 17:08:26 10° SSE 17:12:30 61° ENE 17:16:34 10° N
Cosmos 1606 Rocket 3.9 17:08:55 10° SSW 17:13:16 68° WNW 17:17:41 10° N
FALCON 9 DEB 3.1 17:13:26 10° SW 17:16:37 59° SSE 17:17:56 30° E
ARGOS 3.9 17:13:09 13° ESE 17:17:18 31° ENE 17:22:02 10° N
Okean-O 2.6 17:14:35 10° SSE 17:18:58 64° ENE 17:23:22 10° N
SKYMED 2 3.5 17:14:49 10° NNE 17:19:10 70° ESE 17:23:30 10° S
Cosmos 1689 Rocket 1.8 17:17:33 10° NNE 17:20:27 67° ESE 17:23:19 10° S
SL-08 R/B 4.4 17:15:07 10° N 17:21:19 72° ENE 17:27:25 10° SSE
Cosmos 1656 3.8 17:16:58 10° S 17:22:21 54° ESE 17:27:51 10° NE
Cosmos 1745 Rocket 4.0 17:18:18 10° N 17:24:31 57° ENE 17:30:44 10° SSE
Cosmos 1400 Rocket 2.7 17:20:52 10° S 17:24:58 82° E 17:29:05 10° NNE
H-2A R/B 2.4 17:21:39 10° SE 17:26:48 46° ENE 17:32:00 10° N
PSLV R/B 3.8 17:23:16 10° NNE 17:27:28 69° ESE 17:31:36 10° S
Ariane Rocket 4.3 17:27:38 21° ENE 17:27:44 21° ENE 17:31:27 10° N
GEOS 3 Rocket 3.8 17:24:33 19° ESE 17:28:25 61° NE 17:33:45 10° NW
Cosmos 2227 Rocket 2.2 17:23:10 10° NNW 17:28:52 89° WSW 17:34:32 10° SSE
CZ-4 R/B 1.1 17:25:26 10° SSE 17:29:18 72° ENE 17:33:09 10° N
Cosmos 2058 2.9 17:25:17 10° N 17:29:19 53° ENE 17:33:19 10° SSE
Cosmos 1892 2.6 17:26:46 10° N 17:30:40 76° E 17:34:32 10° SSE
Cosmos 220 Rocket 4.5 17:28:46 10° S 17:32:47 37° ESE 17:34:08 30° ENE
Cosmos 2263 Rocket 3.3 17:29:42 10° NNW 17:34:23 25° NE 17:35:33 24° ENE
Cosmos 1408 2.6 17:31:16 10° N 17:34:52 55° ENE 17:37:15 20° SSE
CSL-04 Rocket 3.8 17:29:42 10° SE 17:35:05 55° ENE 17:40:28 10° N
BREEZE-M R/B 3.3 17:28:35 10° W 17:36:13 87° S 17:37:08 43° E
Cosmos 1386 Rocket 4.5 17:31:33 10° N 17:37:58 68° ENE 17:44:17 10° SSE
NOSS 3-4 (A) 4.2 17:34:13 10° NW 17:40:42 46° NE 17:44:11 28° E
NOSS 3-4 (C) 4.2 17:34:20 10° NW 17:40:48 46° NE 17:44:16 28° E
CZ-4C R/B 3.7 17:35:27 10° NW 17:41:12 31° NNE 17:44:25 23° ENE
Meteor 2-1 Rocket 4.2 17:36:30 10° S 17:41:50 53° E 17:47:12 10° NNE
Cosmos 1300 4.3 17:39:54 10° SW 17:43:27 36° WNW 17:47:00 10° N
Cosmos 2058 Rocket 3.6 17:42:14 10° SSW 17:46:40 62° WNW 17:51:10 10° N
Cosmos 1697 Rocket 2.9 17:41:38 10° S 17:46:58 46° ESE 17:49:37 27° NE
SeaSat 1 2.6 17:46:28 35° ESE 17:48:08 51° NE 17:52:56 10° NNW
CZ-2D R/B 4.1 17:44:36 10° S 17:48:19 51° W 17:52:04 10° NNW
SL-4 R/B 1.7 17:44:56 10° WNW 17:48:31 69° N 17:49:04 58° ENE
Cosmos 1346 Rocket 2.7 17:45:36 10° NNW 17:49:37 88° WSW 17:53:36 10° S
CRYOSAT 2 4.3 17:46:39 10° N 17:51:29 62° E 17:56:17 10° S
NOSS 3-3 (A) 4.1 17:46:13 10° SSW 17:51:45 48° ESE 17:54:18 32° ENE
Cosmos 1825 2.2 17:48:07 10° N 17:51:38 55° ENE 17:51:38 55° ENE
NOSS 3-3 (C) 4.1 17:46:18 10° SSW 17:51:53 48° ESE 17:54:24 32° ENE
USA 305 2.8 17:48:01 10° WNW 17:52:20 86° SSW 17:53:27 49° ESE
Cosmos 1709 Rocket 4.1 17:48:01 10° N 17:54:17 56° ENE 17:59:42 14° SSE
USA 215 3.5 17:51:39 31° ENE 17:54:44 55° NNE 18:01:05 10° WNW
Cosmos 44 4.0 17:51:14 10° WSW 17:55:41 50° NW 17:59:04 18° NNE
Cosmos 1315 Rocket 2.7 17:52:13 10° S 17:56:07 63° E 17:56:20 62° E
SJ-11-01 4.1 17:53:43 12° SSE 17:58:02 80° ENE 18:02:44 10° NNW
USA 306 2.9 17:54:26 10° WNW 17:58:44 80° SSW 17:59:35 56° SE
BREEZE-M R/B 3.7 17:58:16 10° W 18:02:25 84° SSW 18:05:18 38° ESE
ATLAS 2AS CENTAUR R/B 3.2 17:55:30 10° NW 18:02:54 49° NE 18:05:17 37° E
Cosmos 968 Rocket 4.1 17:58:59 10° NNW 18:04:06 55° WSW 18:09:07 10° S
HJ-1C 4.4 18:07:28 40° NNW 18:07:28 40° NNW 18:09:43 10° NNW
SJ 16-02 3.8 18:04:03 10° NNE 18:04:08 10° NNE 18:04:08 10° NNE
COSMO-SKYMED 1 3.9 18:03:04 10° N 18:07:10 41° WNW 18:11:14 10° SW
MOS 1 Rocket 3.2 18:03:24 10° NNE 18:08:04 74° ESE 18:12:59 10° S
Cosmos 2297 Rocket 3.5 18:03:18 10° NW 18:08:32 39° WSW 18:13:44 10° S
Cosmos 1076 Rocket 3.5 18:05:19 10° NNW 18:09:35 81° W 18:11:35 31° S
Cosmos 1980 Rocket 3.3 18:04:31 10° S 18:07:19 26° SSE 18:07:19 26° SSE
Cosmos 1777 Rocket 4.4 18:06:15 10° NNW 18:10:51 43° NE 18:10:51 43° NE
Cosmos 883 Rocket 4.3 18:05:31 10° S 18:11:35 64° E 18:17:38 10° NNE
CSL-04 Debris 4.4 18:10:08 10° S 18:15:34 72° WSW 18:21:04 10° NNW
Cosmos 2315 Rocket 3.9 18:09:35 10° S 18:15:37 57° E 18:21:41 10° NNE
S3M 4.0 18:10:03 10° SSW 18:16:10 79° W 18:22:23 10° N
Lacrosse 5 2.6 18:18:28 10° WNW 18:23:14 38° NNE 18:23:30 38° NNE
YAOGAN 1 3.9 18:19:24 10° SSW 18:23:27 38° W 18:27:31 10° NNW
Cosmos 2360 4.1 18:20:07 10° SSW 18:25:47 70° ESE 18:26:14 66° E
Cosmos 1812 Rocket 3.8 18:26:39 10° SSW 18:35:45 - N 18:30:36 65° WSW
Cosmos 1455 3.2 18:28:12 10° SSW 18:31:13 42° WSW 18:31:13 42° WSW
CZ-2C R/B 4.4 18:28:06 10° SSW 18:33:34 43° W 18:38:56 10° NNW
Meteor 2-3 Rocket 4.0 18:30:03 10° N 18:34:44 53° NNE 18:34:44 53° NNE
USA 307 4.0 18:37:29 10° WNW 18:40:52 41° WSW 18:40:52 41° WSW
USA 308 4.2 18:42:20 10° WNW 18:45:31 37° WSW 18:45:31 37° WSW
ATLAS 5 CENTAUR R/B 4.0 18:51:55 10° NW 18:55:01 18° N 18:55:01 18° N
ARGOS 4.0 18:54:41 26° SSW 18:57:23 47° W 19:02:39 10° NNW
Cosmos 2369 4.1 18:57:08 10° SW 19:02:47 62° WNW 19:03:11 61° NW
Ariane Rocket 4.0 19:07:51 43° NNW 19:07:51 43° NNW 19:11:19 10° NNW
H-2A R/B 3.8 19:01:37 10° SSW 19:06:22 31° W 19:11:12 10° NNW
Cosmos 1844 Rocket 4.5 19:02:52 10° NNW 19:05:18 21° N 19:05:18 21° N
Cosmos 2263 Rocket 3.0 19:13:15 10° NNW 19:17:16 47° NW 19:17:16 47° NW
SeaSat 1 4.1 19:26:15 29° W 19:26:15 29° W 19:30:10 10° NW
CZ-4C R/B 3.2 19:23:57 10° NW 19:29:36 59° N 19:29:36 59° N
Cosmos 1697 Rocket 4.0 19:25:54 10° WSW 19:31:04 37° NW 19:31:25 36° NW
NOSS 3-4 (A) 4.1 19:25:06 10° NW 19:31:39 62° WSW 19:31:39 62° WSW
NOSS 3-4 (C) 4.1 19:25:13 10° NW 19:31:43 62° WSW 19:31:43 62° WSW
USA 215 3.7 19:39:00 58° WNW 19:39:00 58° WNW 19:44:11 10° WNW
ATLAS 2AS CENTAUR R/B 3.5 19:46:49 10° NW 19:52:43 50° W 19:52:43 50° W
Lacrosse 5 4.5 20:01:37 10° NW 20:02:41 16° NW 20:02:41 16° NW
